DateTime,F1_A11,F1_S11,BsB_S11,BsG_S11,BsR_S11,BbsB_S11,BbsG_S11,BbsR_S11,BaB_A11,BaG_A11,BaR_A11,T_S11,U_S11,P_S11,T1_A11
2016-11-01T00:00:00Z,0000380,21000600,,,,,,,,,,26.7,00.0,0651.1,34.4
2016-11-01T00:01:00Z,0000380,21000600,,,,,,,,,,26.7,00.0,0651.1,34.4
2016-11-01T00:02:00Z,0000380,21000600,,,,,,,,,,26.7,00.0,0651.1,34.4
2016-11-01T00:03:00Z,0000380,61000600,,,,,,,,,,26.7,00.0,0651.1,34.4
2016-11-01T00:04:00Z,0000380,41000600,-000.21,-000.10,0000.11,0000.68,-000.34,0000.54,-000.06,0000.21,-000.16,26.7,00.0,0652.2,34.4
2016-11-01T00:05:00Z,0000380,01000600,0000.27,-000.09,-000.16,0000.74,0000.11,0000.50,0000.02,0000.16,-000.14,26.7,00.0,0652.4,34.4
2016-11-01T00:06:00Z,0000380,01000600,0000.54,-000.65,0000.29,-000.57,-000.20,0000.74,0000.01,-000.08,0000.29,26.6,00.0,0652.4,34.4
2016-11-01T00:07:00Z,0000380,01000600,0000.00,-000.80,-000.28,-000.25,0000.17,0000.22,0000.42,0000.15,0000.31,26.6,00.0,0652.5,34.4
2016-11-01T00:08:00Z,0000380,01000600,0000.26,-000.29,-000.27,0000.39,-000.08,0000.25,-000.27,-000.16,-000.14,26.6,00.0,0652.5,34.4
2016-11-01T00:09:00Z,0000380,01000600,-000.62,0000.04,0000.54,0000.60,-000.29,0000.07,0000.00,0000.10,-000.04,26.7,00.0,0652.5,34.5
2016-11-01T00:10:00Z,0000380,01000600,-001.06,0000.12,0000.21,0000.95,-000.51,0000.32,0000.09,0000.08,0000.34,26.7,00.0,0652.5,34.5
2016-11-01T00:11:00Z,0000380,01000600,-000.14,-000.78,-000.31,-000.37,0000.31,0000.06,0000.30,0000.09,0000.00,26.7,00.0,0652.6,34.5
2016-11-01T00:12:00Z,0000380,01000600,0001.11,-000.14,-000.08,0000.77,0000.07,0000.42,0000.02,0000.13,0000.04,26.7,00.0,0652.6,34.5
2016-11-01T00:13:00Z,0000380,01000600,0000.57,-000.12,-000.46,0000.46,0000.47,0000.05,0000.18,0000.06,0000.21,26.7,00.0,0652.6,34.5
2016-11-01T00:14:00Z,0000380,01000600,-000.01,0000.19,0000.13,0000.14,0000.05,-000.09,-000.03,-000.01,-000.14,26.8,00.0,0652.6,34.5
2016-11-01T00:15:00Z,0000380,01000600,-000.10,-000.36,-000.34,0000.45,-000.87,-000.11,0000.01,0000.02,-000.28,26.8,00.0,0652.7,34.5
2016-11-01T00:16:00Z,0000380,01000600,0000.11,-000.00,0000.57,0000.17,-000.05,-000.08,-000.14,-000.13,0000.27,26.8,00.0,0652.7,34.5
2016-11-01T00:17:00Z,0000380,01000600,0000.39,0000.68,0000.35,0000.18,-000.22,0000.19,0000.06,0000.14,-000.04,26.8,00.0,0652.8,34.5
2016-11-01T00:18:00Z,0000380,01000600,-001.61,-000.30,0000.29,-000.29,-000.08,-000.04,0000.19,0000.18,-000.22,26.8,00.0,0652.8,34.5
2016-11-01T00:19:00Z,0000380,01000600,0001.09,-000.72,0000.08,0000.06,-000.37,-000.04,0000.18,0000.00,0000.49,26.7,00.0,0652.9,34.5
2016-11-01T00:20:00Z,0000380,01000600,-001.26,0000.09,0000.30,0000.55,0000.24,0000.18,0000.03,0000.03,-000.07,26.7,00.0,0652.9,34.4
2016-11-01T00:21:00Z,0000380,01000600,-000.71,0000.08,0000.75,-000.12,-000.19,0000.41,0000.11,0000.04,0000.24,26.7,00.0,0652.9,34.4
2016-11-01T00:22:00Z,0000380,01000600,-000.65,0000.90,0000.15,-000.27,0000.22,0000.27,-000.24,0000.13,-000.05,26.8,00.0,0653.0,34.5
2016-11-01T00:23:00Z,0000380,01000600,0000.15,-000.13,0000.61,0000.30,-000.11,0000.50,0000.14,-000.03,0000.10,26.8,00.0,0653.0,34.5
2016-11-01T00:24:00Z,0000380,01000600,0000.62,0000.49,0000.41,0000.19,-000.03,0000.34,0000.06,0000.19,-000.01,26.8,00.0,0653.0,34.5
2016-11-01T00:25:00Z,0000380,01000600,-001.21,0000.28,0000.58,0000.37,0000.01,0000.60,-000.12,-000.15,-000.00,26.8,00.0,0653.0,34.5
2016-11-01T00:26:00Z,0000380,01000600,-000.29,-000.13,0000.41,0000.13,-000.08,0000.40,0000.26,0000.08,0000.16,26.8,00.0,0653.1,34.6
2016-11-01T00:27:00Z,0000380,01000600,-000.26,-000.12,0000.41,0000.58,-000.11,0000.14,0000.04,0000.17,-000.19,26.9,00.0,0653.1,34.6
2016-11-01T00:28:00Z,0000380,01000600,-000.78,0000.39,-000.18,-000.26,-000.31,0000.04,0000.17,0000.15,0000.27,26.9,00.0,0653.1,34.6
2016-11-01T00:29:00Z,0000380,01000600,0000.35,-000.50,0000.19,-000.25,-000.33,0000.11,0000.01,-000.16,-000.29,26.9,00.0,0653.2,34.6
2016-11-01T00:30:00Z,0000380,01000600,-000.40,-000.24,0000.00,-000.08,-000.25,-000.10,0000.23,0000.42,0000.44,27.0,00.0,0653.2,34.6
2016-11-01T00:31:00Z,0000380,01000600,0000.46,0000.01,0000.43,0000.07,-000.14,0000.07,0000.05,-000.05,0000.11,27.0,00.0,0653.2,34.6
2016-11-01T00:32:00Z,0000380,01000600,0000.66,0000.11,0000.16,0000.25,-000.39,-000.08,-000.05,0000.13,-000.08,27.1,00.0,0653.3,34.6
2016-11-01T00:33:00Z,0000380,01000600,-000.51,0000.30,0000.05,0000.46,-000.14,-000.04,0000.16,-000.04,0000.14,27.1,00.0,0653.3,34.6
2016-11-01T00:34:00Z,0000380,01000600,0000.25,-000.82,-000.64,0000.14,-000.08,-000.14,0000.12,-000.01,-000.30,27.1,00.0,0653.3,34.6
2016-11-01T00:35:00Z,0000380,01000600,-000.34,-000.46,0000.18,0000.26,-000.14,0000.13,0000.05,0000.24,0000.63,27.1,00.0,0653.3,34.5
2016-11-01T00:36:00Z,0000380,01000600,-000.63,0000.07,0000.22,-000.19,0000.23,-000.06,0000.08,-000.17,-000.28,27.1,00.0,0653.4,34.6
2016-11-01T00:37:00Z,0000380,01000600,-000.38,-000.60,0000.06,0000.56,-000.05,0000.22,-000.09,0000.19,-000.20,27.1,00.0,0653.4,34.6
2016-11-01T00:38:00Z,0000380,01000600,0000.56,-000.29,0000.28,0000.23,0000.11,-000.04,0000.12,0000.08,0000.11,27.2,00.0,0653.4,34.5
2016-11-01T00:39:00Z,0000380,01000600,0000.25,-000.21,0000.37,-000.22,-000.27,0000.11,-000.03,-000.17,0000.02,27.2,00.0,0653.4,34.6
2016-11-01T00:40:00Z,0000380,01000600,-000.45,0000.44,0000.31,-000.12,-000.32,0000.32,0000.35,0000.53,0000.43,27.2,00.0,0653.4,34.5
2016-11-01T00:41:00Z,0000380,01000600,-000.02,0000.06,0000.22,0000.55,0000.58,-000.02,0000.07,0000.13,-000.33,27.2,00.0,0653.3,34.5
2016-11-01T00:42:00Z,0000380,01000600,0000.67,-000.07,-000.04,0000.36,-000.59,0000.23,0000.21,0000.06,0000.43,27.2,00.0,0653.3,34.5
2016-11-01T00:43:00Z,0000380,01000600,0000.06,0000.18,0000.60,0000.48,0000.07,-000.16,0000.17,0000.20,0000.27,27.2,00.0,0653.3,34.5
2016-11-01T00:44:00Z,0000380,01000600,-000.10,0000.06,-000.15,-000.03,-000.05,0000.12,-000.03,0000.05,-000.10,27.2,00.0,0653.3,34.5
2016-11-01T00:45:00Z,0000380,01000600,0000.35,-000.41,0000.06,0000.07,-000.12,0000.26,0000.32,0000.16,0000.04,27.2,00.0,0653.3,34.5
2016-11-01T00:46:00Z,0000380,01000600,0000.21,0000.31,0000.61,-000.39,0000.53,0000.19,0000.17,0000.30,0000.36,27.2,00.0,0653.2,34.5
2016-11-01T00:47:00Z,0000380,01000600,0000.35,0000.22,0000.05,0000.31,0000.18,0000.12,0000.06,-000.02,0000.16,27.2,00.0,0653.2,34.5
2016-11-01T00:48:00Z,0000380,01000600,-000.09,0000.28,0000.10,0000.20,-000.00,0000.14,0000.02,0000.05,-000.15,27.2,00.0,0653.2,34.5
2016-11-01T00:49:00Z,0000380,01000600,0000.58,-000.39,0000.24,-000.39,-000.08,0000.25,0000.30,0000.12,0000.16,27.2,00.0,0653.3,34.5
2016-11-01T00:50:00Z,0000380,01000600,-000.12,-000.21,0000.49,0000.52,-000.32,0000.06,0000.01,0000.09,0000.14,27.2,00.0,0653.3,34.5
2016-11-01T00:51:00Z,0000380,01000600,0000.44,0000.77,-000.21,0000.77,-000.37,0000.32,0000.10,0000.07,-000.16,27.2,00.0,0653.3,34.5
2016-11-01T00:52:00Z,0000380,01000600,0000.03,0000.49,0000.52,0000.19,0000.17,0000.29,0000.09,0000.14,0000.24,27.2,00.0,0653.4,34.5
2016-11-01T00:53:00Z,0000380,01000600,-000.51,-000.07,0000.08,-000.14,0000.27,0000.18,0000.18,-000.06,-000.06,27.2,00.0,0653.4,34.5
2016-11-01T00:54:00Z,0000380,01000600,-000.39,0000.19,0000.53,0000.45,-000.15,0000.39,0000.12,0000.05,0000.02,27.2,00.0,0653.4,34.5
2016-11-01T00:55:00Z,0000380,01000600,0000.37,0000.09,0000.05,0000.48,-000.40,0000.20,0000.04,0000.27,0000.17,27.2,00.0,0653.4,34.5
2016-11-01T00:56:00Z,0000380,01000600,0000.55,0000.09,0000.34,0000.78,-000.07,0000.17,0000.17,0000.13,0000.02,27.2,00.0,0653.5,34.5
2016-11-01T00:57:00Z,0000380,41000600,,,,,,,,,,27.3,00.0,0653.5,34.5
2016-11-01T00:58:00Z,0000380,61000600,,,,,,,,,,27.2,00.0,0652.5,34.5
2016-11-01T00:59:00Z,0000380,21000600,,,,,,,,,,27.2,00.0,0652.5,34.5
2016-11-01T01:00:00Z,0000380,21000600,,,,,,,,,,27.2,00.0,0652.5,34.5
2016-11-01T01:01:00Z,0000380,21000600,,,,,,,,,,27.2,00.0,0652.6,34.5
2016-11-01T01:02:00Z,0000380,21000600,,,,,,,,,,27.2,00.0,0652.6,34.5
2016-11-01T01:03:00Z,0000380,61000600,,,,,,,,,,27.2,00.0,0652.6,34.5
2016-11-01T01:04:00Z,0000380,41000600,0000.71,-000.58,0000.76,-000.16,0000.12,0000.52,0000.22,-000.02,0000.12,27.2,00.0,0653.7,34.5
2016-11-01T01:05:00Z,0000380,01000600,-000.46,-000.30,-000.02,0000.02,0000.18,0000.52,-000.02,0000.07,-000.14,27.2,00.0,0653.8,34.5
2016-11-01T01:06:00Z,0000380,01000600,0000.72,0000.88,0000.51,-000.72,0000.03,0000.28,0000.24,0000.17,-000.07,27.2,00.0,0653.9,34.5
2016-11-01T01:07:00Z,0000380,01000600,0000.86,0000.08,-000.13,-000.35,-000.15,-000.23,0000.02,-000.07,0000.26,27.2,00.0,0653.9,34.5
2016-11-01T01:08:00Z,0000380,01000600,-000.01,0000.10,-000.13,0000.18,-000.07,0000.17,-000.07,0000.30,0000.17,27.2,00.0,0654.0,34.5
2016-11-01T01:09:00Z,0000380,01000600,0000.89,-000.26,-000.03,-000.44,0000.40,-000.08,0000.45,0000.05,0000.15,27.2,00.0,0654.0,34.5
2016-11-01T01:10:00Z,0000380,01000600,-001.37,-000.72,-000.26,0000.05,0000.22,0000.17,-000.23,0000.02,0000.05,27.2,00.0,0654.1,34.5
2016-11-01T01:11:00Z,0000380,01000600,0000.12,-000.32,0000.06,0000.08,-000.33,0000.26,0000.13,-000.06,-000.01,27.2,00.0,0654.1,34.5
2016-11-01T01:12:00Z,0000380,01000600,0000.82,-000.07,0000.21,-000.22,0000.49,0000.09,0000.15,0000.24,-000.28,27.2,00.0,0654.2,34.5
2016-11-01T01:13:00Z,0000380,01000600,0000.51,0000.15,0000.42,-000.51,0000.20,-000.34,0000.03,0000.20,0000.62,27.1,00.0,0654.3,34.5
2016-11-01T01:14:00Z,0000380,01000600,0000.29,0000.54,0000.21,0000.15,0000.07,0000.79,0000.16,0000.02,-000.35,27.1,00.0,0654.3,34.5
2016-11-01T01:15:00Z,0000380,01000600,0000.01,-000.13,-000.27,-000.27,-000.15,0000.11,0000.09,0000.21,0000.08,27.1,00.0,0654.3,34.5
2016-11-01T01:16:00Z,0000380,01000600,0000.44,0000.43,0000.07,-000.72,0000.05,0000.39,-000.08,-000.19,-000.31,27.1,00.0,0654.4,34.5
2016-11-01T01:17:00Z,0000380,01000600,0000.25,-000.14,0000.11,-000.33,-000.19,0000.01,0000.28,0000.18,0000.27,27.1,00.0,0654.5,34.5
2016-11-01T01:18:00Z,0000380,01000600,0000.07,0000.41,-000.09,-000.33,0000.17,0000.19,0000.15,0000.04,0000.26,27.1,00.0,0654.5,34.5
2016-11-01T01:19:00Z,0000380,01000600,0000.32,-000.22,0000.03,-000.26,0000.22,0000.30,0000.05,0000.10,-000.23,27.1,00.0,0654.6,34.5
2016-11-01T01:20:00Z,0000380,01000600,0000.29,-000.03,0000.57,-000.44,0000.34,0000.06,-000.09,-000.12,0000.14,27.0,00.0,0654.6,34.5
2016-11-01T01:21:00Z,0000380,01000600,-000.79,0000.87,0000.40,-000.78,-000.12,0000.38,-000.04,0000.11,0000.17,27.1,00.0,0654.7,34.5
2016-11-01T01:22:00Z,0000380,01000600,0000.96,-000.11,0000.22,-000.12,0000.01,0000.32,0000.35,0000.31,0000.25,27.1,00.0,0654.7,34.5
2016-11-01T01:23:00Z,0000380,01000600,0000.56,0000.03,0000.29,-000.02,0000.02,0000.28,-000.01,-000.09,-000.02,27.1,00.0,0654.8,34.5
2016-11-01T01:24:00Z,0000380,01000600,-000.05,0000.67,0000.41,-000.63,-000.17,-000.17,0000.33,0000.12,0000.15,27.0,00.0,0654.9,34.4
2016-11-01T01:25:00Z,0000380,01000600,0000.00,0000.01,0000.21,-000.42,0000.06,0000.34,0000.16,0000.07,0000.02,27.0,00.0,0654.9,34.4
2016-11-01T01:26:00Z,0000380,01000600,0000.69,0000.39,0000.67,-001.40,0000.27,0000.38,0000.10,0000.24,-000.05,27.0,00.0,0654.9,34.4
2016-11-01T01:27:00Z,0000380,01000600,0001.00,0000.56,0000.25,-000.00,-000.12,0000.33,-000.01,-000.15,0000.40,27.0,00.0,0654.9,34.4
2016-11-01T01:28:00Z,0000380,01000600,0000.86,0000.72,0000.48,-000.00,-000.04,-000.34,0000.12,0000.33,-000.51,27.0,00.0,0654.9,34.4
2016-11-01T01:29:00Z,0000380,01000600,0000.12,0001.18,0000.19,-000.08,0000.07,0000.46,0000.32,-000.00,0000.46,27.0,00.0,0654.5,34.4
2016-11-01T01:30:00Z,0000380,01000600,0001.28,0000.24,0000.03,-000.13,0000.17,0000.39,-000.16,0000.27,-000.10,26.9,00.0,0654.4,34.4
2016-11-01T01:31:00Z,0000380,01000600,0000.11,0000.41,0000.23,-000.00,0000.16,0000.46,0000.14,-000.06,0000.01,26.9,00.0,0654.5,34.4
2016-11-01T01:32:00Z,0000380,01000600,0001.00,0000.40,0000.18,0000.06,-000.38,-000.01,0000.14,0000.10,0000.46,26.9,00.0,0654.5,34.4
2016-11-01T01:33:00Z,0000380,01000600,0000.86,0000.75,0000.91,-000.64,0000.41,0000.22,-000.08,0000.02,-000.13,26.9,00.0,0654.4,34.4
2016-11-01T01:34:00Z,0000380,01000600,0000.38,-000.56,0000.21,-000.04,0000.00,0000.21,0000.29,-000.08,0000.03,26.9,00.0,0654.5,34.4
2016-11-01T01:35:00Z,0000380,01000600,0000.29,-000.08,0000.27,0000.02,0000.46,0000.03,-000.02,0000.40,-000.02,26.9,00.0,0654.5,34.4
2016-11-01T01:36:00Z,0000380,01000600,-000.11,0000.15,-000.21,0000.24,-000.36,0000.15,0000.29,0000.01,0000.33,26.9,00.0,0654.5,34.4
2016-11-01T01:37:00Z,0000380,01000600,-000.55,0000.95,0000.37,0000.42,-000.26,0000.16,-000.00,0000.24,0000.14,26.9,00.0,0654.5,34.5
2016-11-01T01:38:00Z,0000380,01000600,0001.23,0000.14,0000.17,-000.35,-000.46,0000.21,0000.01,-000.11,-000.28,26.9,00.0,0654.6,34.5
2016-11-01T01:39:00Z,0000380,01000600,-000.22,-000.60,0000.93,0000.37,-000.09,0000.50,0000.17,0000.17,0000.13,26.9,00.0,0654.6,34.5
2016-11-01T01:40:00Z,0000380,01000600,0000.17,0000.43,-000.05,0000.36,-000.07,-000.07,0000.02,0000.10,0000.36,26.9,00.0,0654.6,34.5
2016-11-01T01:41:00Z,0000380,01000600,0000.74,-000.00,-000.13,-000.98,0000.02,-000.20,0000.31,0000.25,0000.10,26.9,00.0,0654.6,34.5
2016-11-01T01:42:00Z,0000380,01000600,0000.04,0000.59,-000.04,-000.01,0000.12,0000.08,0000.05,0000.04,-000.24,26.9,00.0,0654.6,34.5
2016-11-01T01:43:00Z,0000380,01000600,-001.15,0000.08,0000.63,0000.42,0000.02,0000.24,0000.02,-000.10,0000.05,27.0,00.0,0654.7,34.5
2016-11-01T01:44:00Z,0000380,01000600,0000.25,-000.01,0000.18,-000.63,0000.35,0000.02,0000.12,0000.17,0000.42,27.0,00.0,0654.7,34.5
2016-11-01T01:45:00Z,0000380,01000600,-000.25,0000.44,-000.22,-000.39,0000.29,0000.00,0000.25,0000.21,-000.14,27.0,00.0,0654.8,34.5
2016-11-01T01:46:00Z,0000380,01000600,-000.02,0000.81,0000.15,-000.23,0000.19,-000.25,0000.07,0000.09,0000.36,26.9,00.0,0654.8,34.5
2016-11-01T01:47:00Z,0000380,01000600,0000.93,0000.58,0000.44,-000.80,-000.16,0000.27,0000.26,0000.17,-000.18,26.9,00.0,0654.7,34.5
2016-11-01T01:48:00Z,0000380,01000600,0000.65,-000.27,0000.40,-000.07,-000.05,0000.05,0000.22,0000.32,0000.18,26.9,00.0,0654.8,34.4
2016-11-01T01:49:00Z,0000380,01000600,-000.33,0000.24,-000.32,-000.17,0000.54,-000.10,-000.05,-000.38,-000.29,26.9,00.0,0654.8,34.4
2016-11-01T01:50:00Z,0000380,01000600,0000.54,0000.61,0000.21,-000.17,0000.12,0000.36,0000.31,0000.42,0000.46,26.8,00.0,0654.8,34.4
2016-11-01T01:51:00Z,0000380,01000600,0000.05,0000.38,-000.09,-000.24,0000.18,0000.17,-000.02,-000.10,0000.07,26.8,00.0,0654.8,34.4
2016-11-01T01:52:00Z,0000380,01000600,0000.20,-000.04,0000.46,0000.28,0000.03,0000.34,0000.25,0000.36,0000.23,26.9,00.0,0654.8,34.5
2016-11-01T01:53:00Z,0000380,01000600,0000.06,0000.36,0000.50,-000.63,0000.52,0000.41,-000.07,-000.02,-000.19,26.9,00.0,0654.8,34.5
2016-11-01T01:54:00Z,0000380,01000600,0000.40,0000.27,0000.21,-000.85,0000.60,0000.50,0000.07,0000.03,0000.07,26.9,00.0,0654.9,34.5
2016-11-01T01:55:00Z,0000380,01000600,0000.63,0001.42,0000.12,0000.08,0000.55,-000.08,0000.36,0000.16,0000.28,26.9,00.0,0654.9,34.5
2016-11-01T01:56:00Z,0000380,01000600,0000.93,0000.80,-000.20,-000.33,0000.19,0000.30,-000.06,-000.06,0000.03,26.9,00.0,0654.9,34.5
2016-11-01T01:57:00Z,0000380,41000600,,,,,,,,,,26.9,00.0,0655.0,34.5
2016-11-01T01:58:00Z,0000380,61000600,,,,,,,,,,26.9,00.0,0654.0,34.6
2016-11-01T01:59:00Z,0000380,21000600,,,,,,,,,,26.9,00.0,0654.0,34.6
2016-11-01T02:00:00Z,0000380,21000600,,,,,,,,,,26.9,00.0,0654.0,34.6
2016-11-01T02:01:00Z,0000380,21000600,,,,,,,,,,27.0,00.0,0654.0,34.6
2016-11-01T02:02:00Z,0000380,21000600,,,,,,,,,,27.0,00.0,0654.1,34.6
2016-11-01T02:03:00Z,0000380,61000600,,,,,,,,,,27.0,00.0,0654.1,34.5
2016-11-01T02:04:00Z,0000380,41000600,0000.73,0000.24,0000.10,-000.12,0000.42,0000.05,0000.05,-000.03,-000.04,27.1,00.0,0655.2,34.5
2016-11-01T02:05:00Z,0000380,01000600,-000.47,0000.86,0000.40,-000.08,0000.35,0000.56,0000.46,0000.42,0000.46,27.1,00.0,0655.3,34.5
2016-11-01T02:06:00Z,0000380,01000600,-000.98,0000.68,0000.74,0000.53,0000.30,0000.79,0000.08,0000.03,0000.07,27.1,00.0,0655.3,34.5
2016-11-01T02:07:00Z,0000380,01000600,0000.18,-000.06,0000.39,0000.14,-000.24,0000.49,-000.05,0000.19,-000.18,27.1,00.0,0655.2,34.5
2016-11-01T02:08:00Z,0000380,01000600,0000.33,-000.42,0000.94,-000.34,0000.06,0000.20,0000.32,0000.14,0000.26,27.1,00.0,0655.2,34.5
2016-11-01T02:09:00Z,0000380,01000600,0000.91,0001.47,0000.81,0000.09,0000.17,0000.33,0000.20,0000.18,0000.05,27.1,00.0,0655.1,34.5
2016-11-01T02:10:00Z,0000380,01000600,0000.01,0000.69,0000.10,0000.03,-000.01,-000.23,-000.02,0000.08,0000.05,27.2,00.0,0655.1,34.6
2016-11-01T02:11:00Z,0000380,01000600,0000.17,0000.32,0000.08,0000.47,-000.03,0000.03,0000.12,-000.10,0000.58,27.2,00.0,0655.1,34.6
2016-11-01T02:12:00Z,0000380,01000600,-000.41,0000.62,-000.36,-000.09,0000.08,-000.10,0000.33,0000.62,-000.08,27.2,00.0,0655.1,34.6
2016-11-01T02:13:00Z,0000380,01000600,-000.40,0000.33,0000.16,0000.16,-000.12,0000.31,0000.00,-000.14,0000.28,27.2,00.0,0655.1,34.5
2016-11-01T02:14:00Z,0000380,01000600,-000.45,0000.10,0000.76,0000.30,-000.30,0000.38,0000.03,0000.17,-000.19,27.2,00.0,0655.1,34.5
2016-11-01T02:15:00Z,0000380,01000600,0000.46,0000.30,0000.41,0000.11,0000.26,0000.26,0000.25,-000.12,-000.03,27.3,00.0,0655.3,34.5
2016-11-01T02:16:00Z,0000380,01000600,0001.10,0000.22,0000.67,0000.32,-000.27,-000.00,0000.03,0000.21,0000.41,27.3,00.0,0655.4,34.5
2016-11-01T02:17:00Z,0000380,01000600,-000.81,-000.00,0000.38,0000.67,0000.50,-000.04,0000.23,-000.10,-000.46,27.2,00.0,0655.4,34.5
2016-11-01T02:18:00Z,0000380,01000600,-000.18,0000.41,-000.15,0000.01,-000.10,0000.13,0000.03,0000.08,0000.31,27.2,00.0,0655.4,34.5
2016-11-01T02:19:00Z,0000380,01000600,0000.45,-000.17,0000.06,-000.54,0000.44,0000.18,-000.05,0000.13,-000.12,27.2,00.0,0655.4,34.5
2016-11-01T02:20:00Z,0000380,01000600,0000.42,0000.06,0000.42,0000.43,0000.00,0000.40,0000.19,0000.14,0000.19,27.2,00.0,0655.5,34.5
2016-11-01T02:21:00Z,0000380,01000600,0001.24,0000.67,0000.23,0000.25,-000.27,0000.49,0000.22,0000.25,0000.04,27.2,00.0,0655.4,34.5
2016-11-01T02:22:00Z,0000380,01000600,0000.54,0000.49,-000.07,0000.02,-000.28,0000.19,0000.11,0000.04,-000.17,27.2,00.0,0655.4,34.5
2016-11-01T02:23:00Z,0000380,01000600,-001.34,0001.05,0001.22,0000.23,-000.03,0000.41,0000.13,0000.05,0000.43,27.2,00.0,0655.4,34.5
2016-11-01T02:24:00Z,0000380,01000600,-000.29,0000.46,-000.38,-000.46,0000.09,0000.45,0000.19,0000.37,0000.28,27.2,00.0,0655.4,34.6
2016-11-01T02:25:00Z,0000380,01000600,0000.38,-000.02,0000.25,0001.09,0000.30,-000.30,0000.05,0000.04,-000.44,27.3,00.0,0655.4,34.6
2016-11-01T02:26:00Z,0000380,01000600,0000.85,0000.28,0000.49,-000.15,-000.01,0000.37,0000.26,0000.22,0000.60,27.3,00.0,0655.4,34.5
2016-11-01T02:27:00Z,0000380,01000600,0001.19,0000.52,0000.12,0000.17,0000.44,-000.28,0000.03,0000.12,-000.04,27.3,00.0,0655.3,34.5
2016-11-01T02:28:00Z,0000380,01000600,-000.55,0000.41,0000.73,0000.56,-000.34,-000.04,0000.20,0000.00,-000.12,27.3,00.0,0655.4,34.5
2016-11-01T02:29:00Z,0000380,01000600,0000.13,0000.25,0000.18,0000.47,-000.16,0000.20,0000.20,0000.13,0000.27,27.3,00.0,0655.4,34.5
2016-11-01T02:30:00Z,0000380,01000600,0000.36,0000.36,-000.17,0000.77,-000.35,0000.25,0000.12,0000.21,0000.35,27.3,00.0,0655.5,34.5
2016-11-01T02:31:00Z,0000380,01000600,0001.05,0000.29,-000.12,0000.40,0000.11,-000.03,-000.06,0000.08,-000.13,27.3,00.0,0655.5,34.5
2016-11-01T02:32:00Z,0000380,01000600,-000.21,0000.62,0000.92,0000.44,-000.08,0000.21,0000.48,-000.06,0000.05,27.3,00.0,0655.5,34.5
2016-11-01T02:33:00Z,0000380,01000600,0000.22,0000.01,0000.15,0000.37,0000.44,0000.48,-000.00,0000.08,0000.17,27.3,00.0,0655.5,34.5
2016-11-01T02:34:00Z,0000380,01000600,0000.61,0000.37,0000.12,-000.15,-000.42,0000.27,0000.16,0000.22,-000.17,27.2,00.0,0655.5,34.5
2016-11-01T02:35:00Z,0000380,01000600,0000.29,0000.75,0000.62,-000.11,-000.02,0000.43,0000.00,0000.30,0000.51,27.2,00.0,0655.4,34.5
2016-11-01T02:36:00Z,0000380,01000600,0000.30,0000.02,0000.04,0000.74,0000.31,0000.47,0000.25,-000.21,-000.29,27.2,00.0,0655.5,34.5
2016-11-01T02:37:00Z,0000380,01000600,0000.14,-000.00,-000.12,-000.03,0000.50,0000.26,0000.04,0000.04,0000.21,27.3,00.0,0655.5,34.5
2016-11-01T02:38:00Z,0000380,01000600,0000.16,0000.73,0000.24,-000.33,0000.19,0000.10,0000.09,0000.22,-000.07,27.3,00.0,0655.5,34.5
2016-11-01T02:39:00Z,0000380,01000600,0000.45,0000.30,0000.96,0000.71,-000.14,0000.36,0000.14,0000.20,0000.32,27.3,00.0,0655.6,34.5
2016-11-01T02:40:00Z,0000380,01000600,-000.29,0000.43,0000.85,0000.25,-000.11,0000.52,0000.25,0000.37,-000.26,27.3,00.0,0655.6,34.5
2016-11-01T02:41:00Z,0000380,01000600,0000.01,0000.51,0000.69,-000.38,0000.35,-000.09,-000.08,-000.18,0000.33,27.2,00.0,0655.6,34.5
2016-11-01T02:42:00Z,0000380,01000600,-000.39,-000.28,0000.61,0000.51,-000.23,0000.61,0000.20,0000.15,0000.17,27.3,00.0,0655.6,34.5
2016-11-01T02:43:00Z,0000380,01000600,0000.27,-000.14,0001.08,-000.05,-000.18,0000.08,0000.17,0000.16,-000.03,27.2,00.0,0655.7,34.5
2016-11-01T02:44:00Z,0000380,01000600,-000.37,0000.34,0000.33,-000.09,0000.42,0000.15,0000.07,-000.06,0000.14,27.2,00.0,0655.7,34.5
2016-11-01T02:45:00Z,0000380,01000600,-000.02,0000.33,-000.60,-000.42,0000.32,0000.14,0000.20,0000.38,0000.00,27.2,00.0,0655.7,34.5
2016-11-01T02:46:00Z,0000380,01000600,0000.25,0000.88,-000.01,-000.13,0000.18,0000.09,0000.14,0000.06,0000.03,27.2,00.0,0655.7,34.5
2016-11-01T02:47:00Z,0000380,01000600,0001.46,-000.23,0000.16,0000.06,-000.04,0000.24,0000.16,0000.15,0000.44,27.2,00.0,0655.7,34.5
2016-11-01T02:48:00Z,0000380,01000600,0000.08,0000.55,0000.09,-000.03,0000.12,0000.10,0000.23,0000.20,-000.22,27.2,00.0,0655.7,34.5
2016-11-01T02:49:00Z,0000380,01000600,0000.35,0000.46,0000.14,0000.31,-000.09,0000.11,0000.19,-000.03,0000.08,27.2,00.0,0655.8,34.5
2016-11-01T02:50:00Z,0000380,01000600,0001.04,0000.67,0000.20,0000.01,-000.45,0000.11,0000.23,0000.22,0000.15,27.2,00.0,0655.8,34.5
2016-11-01T02:51:00Z,0000380,01000600,0000.27,0000.25,0000.11,-000.52,0000.08,-000.31,-000.05,-000.01,-000.10,27.2,00.0,0655.8,34.5
2016-11-01T02:52:00Z,0000380,01000600,-000.47,0000.65,0000.64,0000.34,-000.12,-000.25,0000.18,0000.32,0000.42,27.1,00.0,0655.9,34.5
2016-11-01T02:53:00Z,0000380,01000600,-000.09,0000.22,0000.58,0000.89,-000.14,0000.48,0000.11,0000.12,0000.07,27.1,00.0,0655.9,34.5
2016-11-01T02:54:00Z,0000380,01000600,-000.41,0000.59,0000.06,-000.12,0000.00,0000.15,0000.25,0000.16,0000.39,27.1,00.0,0655.8,34.5
2016-11-01T02:55:00Z,0000380,01000600,0000.34,0000.28,0000.11,-000.07,0000.24,0000.32,0000.10,0000.07,-000.23,27.1,00.0,0655.8,34.4
2016-11-01T02:56:00Z,0000380,01000600,0000.86,-000.06,0000.56,0000.64,-000.01,0000.39,0000.09,0000.12,0000.36,27.1,00.0,0655.8,34.4
2016-11-01T02:57:00Z,0000380,41000600,,,,,,,,,,27.1,00.0,0655.8,34.4
2016-11-01T02:58:00Z,0000380,61000600,,,,,,,,,,27.0,00.0,0654.9,34.4
2016-11-01T02:59:00Z,0000380,21000600,,,,,,,,,,27.0,00.0,0654.8,34.4
2016-11-01T03:00:00Z,0000380,21000600,,,,,,,,,,27.0,00.0,0654.8,34.4
2016-11-01T03:01:00Z,0000380,21000600,,,,,,,,,,27.0,00.0,0654.9,34.4
2016-11-01T03:02:00Z,0000380,21000600,,,,,,,,,,27.0,00.0,0654.9,34.4
2016-11-01T03:03:00Z,0000380,61000600,,,,,,,,,,27.0,00.0,0654.9,34.4
2016-11-01T03:04:00Z,0000380,41000600,0000.18,0000.77,0000.04,-000.59,-000.04,0000.32,0000.06,-000.01,-000.07,26.9,00.0,0655.8,34.4
2016-11-01T03:05:00Z,0000380,01000600,0001.20,0000.39,0000.15,0000.35,-000.23,0000.22,0000.21,0000.25,0000.14,26.9,00.0,0656.0,34.4
2016-11-01T03:06:00Z,0000380,01000600,0000.89,0000.18,0000.28,-000.35,-000.01,0000.23,0000.23,0000.08,0000.17,26.9,00.0,0656.0,34.4
2016-11-01T03:07:00Z,0000380,01000600,0000.63,0000.74,-000.59,0000.18,0000.03,0000.49,-000.03,0000.11,0000.24,26.9,00.0,0656.0,34.5
2016-11-01T03:08:00Z,0000380,01000600,0000.08,0000.84,-000.02,-000.20,0000.13,0000.43,0000.10,-000.07,0000.11,26.9,00.0,0656.0,34.5
2016-11-01T03:09:00Z,0000380,01000600,0001.74,0000.73,-000.25,-000.08,0000.11,0000.01,0000.07,0000.24,-000.01,26.9,00.0,0656.0,34.6
2016-11-01T03:10:00Z,0000380,01000600,0000.27,0000.31,0000.09,0000.18,-000.23,0000.34,0000.20,0000.08,-000.09,27.0,00.0,0656.1,34.6
2016-11-01T03:11:00Z,0000380,01000600,0000.87,0000.07,0000.53,0000.37,-000.30,0000.19,0000.29,0000.23,0000.39,27.0,00.0,0656.1,34.6